STARLINK-2413, 47827

Orbit data source: Space-Track

STARLINK-2413, 47827 is a payload satellite owned by SpaceX/Seattle (US) in LEO that was launched on Thu, 11 Mar 2021 UTC via an FALCON 9 launch vehicle from the Air Force Eastern Test Range (AFETR). Payload-class satellites include a variety of spacecraft equipped with specific instruments for various scientific and technological missions. These include communications satellites like Starlink; space stations such as the ISS; scientific satellites like the Hubble; Earth observation satellites from companies like Planet Labs, Umbra, and HawkEye 360; GPS; miniature CubeSats for education and research; and military/defense satellites.

Loading next visibility...
Identifier
47827, 2021-018AS
Orbit
LEO
Country
Flag of USUS
Related business
Manufacturer
SpaceX/Seattle
Mission
Operational Commercial Communications
Bus & Motor
STARLINK, Unknown motor
Mass
260 kg wet, ~248 kg dry
Launch date (UTC)
2021-03-11 (5 years ago)
Launch vehicle
FALCON 9
Launch site
Air Force Eastern Test Range (AFETR)
Object type
Payload
Rocket body
Debris
Shape & HBR
Box + 1 Pan, 10.1 m
Radar Cross Section
13.562 m², Large (>1 m²)

Expand to show TLE details & history
Last TLE update: 8 hours ago

TLE from 8 hours ago
0 STARLINK-2413
1 47827U 21018AS  26035.41403278 -.00001308  00000-0 -68938-4 0  9997
2 47827  53.0556  31.2396 0001375  91.1044 269.0102 15.06397563271772
Epoch: 2026-02-04T09:56Z
TLE epoch observation values (Epoch: 2026-02-04T09:56:12.432Z)
Latitude
-0.00005°
Longitude
107.6068°
Altitude
548.115 km
Speed
7.589 km/s
True Right ascension
02h 04m 57s
True Declination
0° 00' 00"
Sunlit
Object was in daylight at epoch
Visualization orbit readout
Latitude
Unknown
Longitude
Unknown
Altitude
Unknown
Speed
Unknown
Apparent Right ascension
Unknown
Apparent Declination
Unknown
Sunlit
N/A
Visualization observer readout
Local Sidereal Time
20:02:29
Azimuth
Unknown
Elevation
Unknown
Doppler factor
Unknown
Orbital elements
Apogee altitude
548.442 km
Perigee altitude
546.537 km
Semi-major axis
6,925.627 km
Eccentricity
0.00014
Inclination
53.0556°
RAAN
31.2396°
Arg. of periapsis
91.1044°
True anomaly
268.99445°
Mean anomaly
269.0102°
Eccentric anomaly
269.00232°
Mean motion
3.76578 °/min
Orbital period
95.6 mins
BSTAR
-0.000068938
Loading maneuver chart data...
Computing Atmospheric mass density...
Loading historical data...
Loading historical data...
Loading historical data...
Loading historical data...
Loading historical data...
Loading historical data...
Loading historical data...

Documentation

Showing up to 5 results
|